COSMOS 2371

Satellite information

Favourite Embed

Satellite Type and Status

PAYLOADIN ORBIT

Key statistics

Satellite COSMOS 2371 at a glance.

Uptime

9294

Days in orbit

Revolutions

≈ 1.0

Per day

Orbit

OTHER

Other

Inclination

13.9

Latest

Satellite identification and parameters

Extended collection of information and parameters for COSMOS 2371.

Object identification

Identified? True

Debris? False

Object name: COSMOS 2371

International designator: 2000-036A

Object number (NORAD): 26394

Object ID (CCSDS): 26394

Country: COMMONWEALTH OF INDEPENDENT STATES (CIS)

Current information (Y/N): Y

RCS size: LARGE

Orbital parameters

Period: 1436.251 minutes

Inclination: 13.8902 deg

SMA: 42167.743 km

Apoapsis: 35807.078 km

Periapsis: 35772.138 km

RAAN: 8.8798 deg

Eccentricy: 0.0004143

Argument of periapsis: 201.8782 deg

Mean anomaly: 153.9948 deg

Mean motion: 1.00261045 rev/day

Mean motion (dot): -0.00000103 rev/day2

B* drag term: 0.0 1/REarth

Two-line elements (TLE)

Creation date: Dec. 14, 2025, 3:07 a.m.

Reference frame: TEME

Reference center: EARTH

Epoch: Dec. 13, 2025, 1:48 p.m. UTC

TLE line 0: 0 COSMOS 2371

TLE line 1: 1 26394U 00036A 25347.57530331 -.00000103 00000-0 00000-0 0 9996

TLE line 2: 2 26394 13.8902 8.8798 0004143 201.8782 153.9948 1.00261045 93177

Live tracking on map

Real-time ground track for satellite COSMOS 2371.

In-orbit conjunctions

A list of the most updated potential collisions computed for object COSMOS 2371.

Target Orbit TCA Probability of collision Miss distance Type
DFH-3 2 OTHER 2025-07-30 18:24:32 TBA 4471.0 (m) PAYLOAD
HGS 4 (GALAXY 4) OTHER 2024-09-19 02:53:57 TBA 3880.0 (m) PAYLOAD
RADUGA 2 GEO 2024-07-17 01:51:07 TBA 4223.0 (m) PAYLOAD

Associated space launch

Geostationary military relay satellite

COSMOS 2371 was lifted into orbit during the mission ‘Proton | Potok 10’, on board a Proton space rocket.

The launch took place on July 4, 2000, 11:44 p.m. from 200/39 (200L).

For more information about the launch, click the button.

Launch to space Proton | Potok 10
Proton | Potok 10

Agency: N/A

Status: Launch Successful

Launch date: July 4, 2000, 11:44 p.m. UTC

Rocket: Proton

Launch pad: 200/39 (200L)

Location: Baikonur Cosmodrome, Republic of Kazakhstan

...

Latest news about this satellite

There are no fresh news available about this satellite. Check back as we update our databases every day.


Newsletter sign-up

Weekly statistics, charts and insights to help you stay on top of the space industry.